User: anonymous
Location: Unspecified
(0.0000°N, 0.0000°E)
Time: 01:40:13
(UTC+02:00)
Language:

ATLAS 2AS CENTAUR R/B - Orbit

View from above orbital plane
View from above orbital plane
View from above satellite
View from above satellite

Ground track
Ground track

The orbit data is extracted from the following two-line orbital elements,

1 28096U 03054B   14210.29977575 0.00000100  00000-0  15068-3 0    03
2 28096  63.6690 201.4134 0251000 295.3358  64.6642 13.40747563    03
Epoch (UTC): 29 July 2014 07:11:40
Eccentricity: 0.0251000
inclination: 63.6690°
perigee height: 918 km
apogee height: 1294 km
right ascension of ascending node: 201.4134°
argument of perigee: 295.3358°
revolutions per day: 13.40747563
mean anomaly at epoch: 64.6642°
orbit number at epoch: 0

The dashed part of the orbit path shows where the satellite is in the earth's shadow,  

DLR